Hourly Weather Roundup
Issued by NWS Central Illinois

Home | Current Version | Previous Version | Graphics & Text | Print | Product List | Glossary On
Versions: 1 2 3 4 5 6 7 8 9 10 11 12 13 14 15 16 17 18 19 20 21 22 23 24 25 26 27 28 29 30 31 32 33 34 35 36 37 38 39 40 41 42 43 44 45 46 47 48 49 50
000
NZUS43 KILX 182210
HWRILX

AREA WEATHER ROUNDUP
NATIONAL WEATHER SERVICE, LINCOLN IL
500 PM CDT SAT APR 18 2015


CITY           SKY/WX    TMP DP  RH WIND       PRES   REMARKS
BLOOMINGTON    PTSUNNY   80  49  33 SE14      29.94F
CHAMPAIGN      PTSUNNY   79  45  29 SE15      29.93F
DECATUR        PTSUNNY   76  50  40 SE13      29.93F
EFFINGHAM      PTSUNNY   77  47  34 E8        29.93F
FLORA          PTSUNNY   76  53  45 SE8       29.92S
GALESBURG      CLOUDY    78  49  36 SE9G16    29.90F
JACKSONVILLE   PTSUNNY   79  56  45 SE12      29.90F
LACON          PTSUNNY   77  54  45 E9        29.91F
LAWRENCEVILLE  PTSUNNY   79  52  38 SE8       29.91F
LITCHFIELD     CLOUDY    73  56  56 SE7       29.91F
$$


CITY           SKY/WX    TMP DP  RH WIND       PRES   REMARKS
LINCOLN        PTSUNNY   80  44  27 SE14G23   29.89F
MACOMB         PTSUNNY   80  47  31 SE13      29.90F
MATTOON        CLOUDY    74  49  41 E10       29.93F
MT CARMEL AP   PTSUNNY   81  41  24 E8        29.90F
OLNEY-NOBLE AP PTSUNNY   77  54  44 E9        29.91F
PARIS          CLOUDY    75  49  38 E6        29.95F
PEORIA         PTSUNNY   81  49  32 VRB7      29.90F HX  80
PONTIAC        CLOUDY    80  51  36 E13       29.95F
RANTOUL        MOSUNNY   80  47  31 SE12      29.94F
ROBINSON       PTSUNNY   76  46  34 E10       29.93F
SPRINGFIELD    CLOUDY    78  52  40 S13       29.91F
TAYLORVILLE    CLOUDY    73  54  49 SE10      29.92F
$$

...REGIONAL REPORTS...


CITY           SKY/WX    TMP DP  RH WIND       PRES   REMARKS
CHICAGO O`HARE PTSUNNY   54  36  50 NE13      30.03F
KANKAKEE       CLOUDY    65  47  52 NE10G17   29.99S
MOLINE         CLOUDY    71  55  56 E18       29.90F
MOUNT VERNON   PTSUNNY   77  55  47 E8        29.90F
PITTSFIELD     MOSUNNY   79  56  45 SE12G17   29.90S
QUINCY         MOSUNNY   77  54  44 S14       29.87F
ROCKFORD       PTSUNNY   73  38  27 E16       30.00F
$$


CITY           SKY/WX    TMP DP  RH WIND       PRES   REMARKS
BURLINGTON     PTSUNNY   77  54  44 S13       29.87F
CEDAR RAPIDS   CLOUDY    76  54  46 SE13      29.87F
DES MOINES     CLOUDY    64  59  83 W3        29.86F
KIRKSVILLE     CLOUDY    62  60  93 SW8       29.91R
OTTUMWA        CLOUDY    74  54  49 SE12      29.85F
ST LOUIS       PTSUNNY   78  56  46 SE10      29.89F
$$


CITY           SKY/WX    TMP DP  RH WIND       PRES   REMARKS
TERRE HAUTE    CLOUDY    75  48  38 E8        29.94F
EVANSVILLE     PTSUNNY   80  51  36 E6        29.89F HX  80
INDIANAPOLIS   CLOUDY    75  46  35 E12       29.96F
LAFAYETTE      PTSUNNY   75  48  38 SE6       29.96S
MADISON        PTSUNNY   68  30  24 E15       30.03F
MILWAUKEE      MOSUNNY   46  34  62 N23G32    30.09F
$$




USA.gov is the U.S. government's official web portal to all federal, state and local government web resources and services.